Cloud_Cover
0 0 0 8 20 8 0 0 0 0 0 0 0 0 0 12 68 88 88 88 88 88 88 88 92 92 92 92 92 88 92 92 92 92 92 92 92 88 80 92 92 92 92 92 92 92 92 92 92 92 92 92 92 92 88 92 92 92 92 92 92 92 92 88 92 92 92 92 92
0 0 8 24 24 12 0 0 0 0 0 0 0 0 0 0 32 64 88 92 88 88 88 92 88 88 88 92 92 88 88 92 92 92 92 92 92 88 80 92 92 92 92 92 92 92 92 92 92 88 80 92 92 92 88 88 88 92 92 92 92 92 92 92 92 92 92 92 92
0 0 0 8 0 0 0 0 0 0 0 0 0 0 0 0 20 56 88 92 44 56 92 88 88 88 88 92 92 92 92 92 92 92 92 92 92 92 92 92 92 92 92 92 92 92 92 92 92 92 92 92 92 88 88 88 88 88 88 88 88 92 92 92 92 92 92 92 92
0 0 0 0 0 0 0 0 0 0 0 0 0 0 0 0 0 0 24 88 20 20 56 88 88 88 88 88 88 88 92 92 92 92 92 92 80 88 92 92 92 88 80 92 92 92 92 92 92 92 92 92 92 88 88 88 88 88 92 92 92 88 92 92 92 92 92 88 88
0 0 0 0 0 0 0 0 0 0 0 0 0 0 0 0 0 20 48 88 88 88 88 88 88 88 88 88 88 88 92 92 92 92 92 92 88 88 92 92 92 92 92 92 92 92 92 92 92 92 92 92 92 88 88 88 88 88 92 92 92 88 92 92 92 92 92 92 92
0 0 0 0 0 0 0 0 0 0 0 0 0 0 0 0 0 20 32 12 68 88 88 88 88 88 88 92 92 92 92 92 92 92 92 92 92 92 88 80 88 92 92 92 92 92 92 92 92 92 92 92 92 88 88 88 88 88 92 92 92 92 92 92 92 92 92 92 92
0 0 0 0 0 0 0 0 8 12 12 0 0 0 0 0 36 32 24 44 36 64 88 88 68 76 88 88 88 92 92 92 92 92 92 92 92 92 92 92 92 92 92 92 92 92 92 92 92 92 92 92 92 56 24 44 76 88 92 92 92 92 92 92 88 92 92 92 92
12 8 8 0 0 0 0 0 12 8 0 0 0 0 8 8 32 44 64 88 44 36 56 88 68 76 88 88 88 88 92 92 92 92 92 92 92 92 92 92 92 92 92 92 92 92 92 92 92 92 92 92 92 76 44 12 56 80 88 92 92 92 92 92 88 88 88 92 88
8 0 0 12 8 8 8 0 8 0 0 0 8 44 80 88 88 88 88 88 64 68 88 88 36 56 88 88 88 88 88 92 92 92 92 92 92 92 92 92 92 92 92 92 92 92 92 92 92 92 92 92 92 92 76 24 32 64 88 88 92 92 88 92 88 88 92 92 88
0 0 0 0 12 32 32 0 8 8 0 0 48 64 68 88 88 88 88 76 88 88 88 88 56 64 76 88 88 88 88 88 92 88 88 88 92 92 92 92 92 92 92 92 92 92 92 92 92 92 92 92 92 92 80 48 36 64 88 88 92 92 88 88 88 88 88 88 92
0 8 12 12 32 24 12 0 12 12 8 8 68 88 88 88 88 80 64 44 76 88 88 88 88 64 48 88 88 88 88 88 88 76 64 76 88 92 92 88 92 92 92 92 92 92 92 92 92 92 92 92 92 92 92 92 80 88 88 88 88 88 88 88 88 88 88 88 92
12 20 24 44 36 20 0 0 0 0 8 20 64 80 88 88 76 44 24 88 88 76 76 88 88 88 88 88 88 88 88 88 88 88 88 80 88 92 88 68 88 92 92 92 92 92 92 92 92 92 92 92 92 92 92 92 92 92 92 88 88 88 88 88 88 88 88 88 88
36 32 20 44 36 20 0 0 8 8 8 8 44 68 80 88 64 32 32 88 88 56 36 76 80 88 88 88 88 88 88 88 88 88 80 64 88 92 88 76 80 88 92 92 92 92 92 92 92 92 92 92 92 92 92 92 92 92 92 92 88 88 88 88 88 88 88 88 88
48 36 32 44 24 12 0 0 8 12 12 0 8 44 76 88 68 44 36 88 76 48 32 32 68 80 88 88 88 88 88 88 88 88 88 88 80 88 80 56 68 80 92 88 88 88 92 92 92 92 92 92 92 92 92 92 92 92 92 92 92 92 92 88 88 88 88 88 88
36 36 44 44 20 8 8 8 12 20 20 0 0 24 56 56 32 32 44 48 32 12 0 12 56 80 88 88 88 88 88 88 88 88 88 88 76 76 80 80 68 76 88 80 80 88 92 92 92 92 92 92 92 92 92 92 92 92 92 92 92 92 92 88 88 88 88 88 88
12 24 44 32 8 8 8 8 12 20 20 8 0 12 20 12 32 44 36 8 0 0 0 20 48 64 68 88 88 88 88 88 88 80 76 88 88 80 76 88 88 88 92 92 92 92 92 92 92 92 92 92 92 92 92 92 92 92 92 92 92 92 92 92 88 88 88 88 88
20 32 36 12 0 0 0 8 8 8 8 8 8 8 12 8 36 44 36 0 0 0 8 36 32 44 56 64 80 88 88 88 88 76 76 88 88 88 88 88 88 88 88 76 88 92 92 92 92 92 92 92 92 92 92 92 92 92 92 92 92 92 88 92 92 88 88 88 88
24 36 36 12 0 0 0 8 8 8 8 8 8 8 12 20 36 36 20 0 0 0 8 32 36 64 80 64 80 88 88 88 76 80 88 88 88 88 88 88 88 88 88 76 76 80 92 92 92 92 92 92 92 92 92 92 92 92 92 92 92 92 88 88 92 88 88 88 88
12 24 24 8 0 0 0 12 8 8 8 0 8 8 8 12 36 24 8 8 0 0 0 0 24 56 88 88 88 88 88 88 76 80 88 88 88 88 80 76 88 88 88 88 76 80 92 92 92 92 92 92 92 92 92 92 92 92 92 92 92 92 92 88 88 88 88 88 88
0 0 8 0 0 0 0 8 0 0 0 8 8 0 0 0 32 24 0 8 0 0 0 0 8 36 76 88 88 88 88 88 68 76 88 88 88 88 80 76 88 88 88 88 88 88 88 92 92 92 92 92 92 92 92 92 92 92 92 92 92 92 92 92 88 88 88 88 88
0 0 0 0 0 0 0 0 0 8 8 0 0 0 0 0 20 24 12 8 8 8 0 0 0 12 32 48 76 88 88 88 76 68 64 64 80 88 88 88 88 88 88 88 88 88 88 92 80 88 92 92 92 92 92 92 92 92 92 92 92 92 92 88 92 92 92 88 88
0 0 0 0 0 0 0 20 24 20 0 0 0 0 0 0 8 20 32 36 12 8 0 0 0 0 0 8 68 88 88 88 88 80 64 32 76 88 88 88 88 88 88 88 88 88 88 92 80 80 80 88 88 92 92 92 92 92 92 92 92 92 88 88 88 92 92 92 88
0 0 0 0 0 20 32 36 20 8 0 0 0 0 0 0 0 20 44 48 20 8 0 0 0 0 0 0 64 88 88 88 88 88 76 32 68 88 88 88 88 88 88 88 88 88 88 88 88 88 88 88 88 92 92 92 92 88 92 92 92 88 88 88 88 88 92 92 92
0 0 0 12 8 24 44 44 8 0 0 0 0 0 0 0 0 20 36 36 20 12 12 12 0 0 0 0 48 76 88 88 88 68 48 24 68 88 88 88 88 88 88 88 88 88 88 88 76 80 88 88 88 92 92 92 88 88 88 88 88 88 88 88 88 88 88 88 88
0 0 0 8 8 12 20 12 0 0 0 0 0 0 0 0 0 0 8 12 20 20 20 12 0 0 0 0 12 48 88 88 80 64 48 76 80 88 88 88 88 88 88 88 80 88 88 88 88 88 88 88 88 88 88 88 88 88 88 88 88 88 88 88 88 88 88 88 88
0 0 0 0 0 0 8 0 0 0 0 0 0 0 0 0 0 0 0 0 8 12 12 8 0 0 0 0 0 44 88 88 88 68 56 88 88 88 88 88 88 80 80 88 80 80 88 88 88 80 80 88 88 88 88 88 88 88 88 88 88 88 88 88 88 88 88 88 88
0 0 0 0 0 0 0 0 0 0 0 0 0 0 0 0 0 0 0 0 0 8 8 8 0 0 0 0 0 12 44 88 88 68 48 64 80 88 88 88 88 88 88 88 88 88 88 88 80 68 68 88 88 88 88 88 88 88 88 88 88 88 88 88 88 88 88 88 88
0 0 0 0 0 0 0 0 0 0 0 0 0 0 0 0 0 0 0 0 0 0 0 8 8 0 0 0 0 0 24 88 88 88 76 36 76 88 88 88 88 88 88 88 88 88 88 88 80 68 64 68 80 88 88 88 88 88 88 88 88 88 88 88 88 88 88 88 88
0 0 0 0 0 0 0 0 0 0 0 0 0 0 0 0 0 0 0 0 0 0 0 8 8 0 0 0 0 8 32 88 88 64 36 48 76 88 88 88 88 88 88 88 88 88 88 88 76 80 88 88 88 88 88 88 88 88 88 88 88 88 88 88 88 88 88 88 88
0 0 0 0 0 0 0 0 0 0 0 0 0 0 0 0 0 0 0 0 0 8 8 8 8 0 0 0 0 8 24 80 24 0 12 44 76 80 76 88 88 88 88 88 88 88 88 88 88 88 88 88 76 68 68 88 88 88 88 88 88 88 88 88 88 88 88 88 88
0 0 0 0 0 0 0 0 0 0 0 0 0 0 0 0 0 8 8 8 12 20 20 8 0 0 0 0 0 8 32 80 80 44 8 20 64 80 80 88 88 88 88 88 88 88 88 88 88 88 88 88 76 64 56 68 80 88 88 88 88 88 88 88 88 88 88 88 88
8 0 0 0 0 0 0 0 0 0 0 0 0 0 0 0 0 8 8 8 8 8 8 0 0 0 0 0 0 0 12 36 68 64 36 36 44 44 48 88 88 88 88 88 88 88 88 88 88 88 88 88 80 80 88 88 88 88 88 88 88 88 88 88 88 88 88 88 80
8 0 0 0 0 0 0 0 0 0 0 0 0 0 0 0 8 8 8 8 8 8 0 0 0 0 0 0 0 0 8 24 36 56 56 8 56 56 48 88 88 88 80 68 80 88 88 88 88 88 88 80 76 76 80 88 88 88 88 88 88 88 88 88 88 88 88 88 88
8 8 0 0 0 0 0 0 0 0 0 0 0 0 8 8 8 8 8 8 8 8 0 0 0 0 0 0 0 0 0 8 32 64 64 8 8 36 76 88 80 80 76 56 80 88 88 88 80 80 76 64 32 20 36 76 76 80 88 88 88 80 80 88 88 88 88 88 88
12 8 8 8 0 0 0 0 0 0 8 8 8 8 8 12 12 12 8 8 8 8 0 0 0 0 0 0 0 0 0 0 12 48 68 20 0 8 32 76 68 64 56 48 68 80 88 88 68 64 68 64 48 32 20 36 48 68 80 80 80 80 88 88 88 88 88 88 80
12 12 8 8 8 8 8 8 8 12 12 12 12 12 12 12 12 12 8 8 0 0 0 0 0 0 0 0 0 0 0 0 0 32 44 0 0 0 12 36 76 88 80 76 56 64 80 88 68 68 76 68 80 56 36 68 76 80 80 80 64 76 88 88 80 80 88 80 88
12 8 8 8 12 12 12 12 12 20 20 20 20 20 20 12 12 12 8 8 0 0 0 0 0 0 0 0 0 0 0 0 0 0 0 0 0 0 8 24 68 88 88 88 80 68 64 88 56 56 64 44 76 64 48 80 80 80 80 80 80 80 88 88 88 88 80 68 80
8 8 8 8 12 12 20 20 20 24 24 24 24 24 20 20 20 12 8 8 8 0 0 0 0 0 0 0 0 0 0 0 0 0 0 0 0 0 0 8 48 76 88 88 88 80 76 68 68 64 64 68 80 80 80 64 76 80 80 80 68 76 80 88 88 88 88 88 88
8 8 0 8 8 12 12 24 24 24 32 36 32 32 32 24 20 20 12 8 8 0 0 0 0 0 0 8 0 0 0 0 0 0 0 0 0 0 0 0 8 48 88 80 88 88 80 48 76 64 44 36 68 80 76 48 76 80 80 80 64 64 68 80 88 88 88 88 76
8 8 8 12 12 12 20 32 36 36 36 36 36 36 32 32 20 12 12 12 8 0 0 0 0 8 20 12 0 0 0 0 0 0 0 0 0 0 0 0 0 24 56 76 88 88 88 80 80 68 56 48 76 80 80 80 80 80 80 80 80 68 64 80 80 80 80 80 68
20 20 20 20 20 20 24 36 44 44 44 44 36 32 32 24 20 12 12 8 8 0 0 0 0 20 32 0 0 0 0 0 0 12 20 8 0 0 0 0 0 0 12 44 68 80 88 88 76 76 80 80 80 80 80 80 80 80 80 80 80 80 76 68 80 80 80 80 80